Location: Irma
(52.9170°N, 111.2330°W)
Time: 06:07:00
(UTC-06:00)

Cosmos 1633 Rocket - Visible Passes

Search period start: 31 October 2014 00:00
Search period end: 09 November 2014 23:00
Orbit: 610 x 625 km, 82.5° (Epoch: 30 October)

Date Brightness Start Highest point End Pass type
(mag) Time Alt. Az. Time Alt. Az. Time Alt. Az.
31 Oct 5.7 04:43:14 14° NNE 04:43:14 14° NNE 04:43:55 10° NNE visible
31 Oct 5.3 06:20:22 11° NNW 06:20:22 11° NNW 06:20:46 10° NNW visible
01 Nov 5.7 05:00:16 13° N 05:00:16 13° N 05:00:43 10° N visible
02 Nov 5.7 04:17:17 11° N 04:17:17 11° N 04:17:23 10° N visible
